sat.trackr.live / text

‹ back to catalog

ONEWEB-0293

NORAD 49082 · 2021-075H

PAYLOAD ACTIVE UNKNOWN

§ Identity

Operator
Country
UK
Launch date
2021-08-21
Launch site
TYMSC
Launch vehicle
Mass (kg)
RCS (m²)

Purposes: comms

External: N2YO · Heavens-Above · Gunter

§ Orbital elements

Epoch: 2026-09-20T04:26:00.875904Z

Period
109.29 min
Inclination
87.9200°
Eccentricity
0.0001713
Mean motion
13.17650686 rev/d
Perigee alt
1,192.4 km
Apogee alt
1,195.0 km
Semi-major
7,571.8 km
B*
-8.1438e-6
RAAN
347.0010°
Arg perigee
101.7714°
Mean anomaly
258.3610°
Rev number
24,614

§ Raw data

ONEWEB-02931 49082U 21075H   26263.18473236  .00000010  00000+0 -81438-5 0  99912 49082  87.9200 347.0010 0001713 101.7714 258.3610 13.17650686246144

JSON: /api/v1/satellites/49082 · /tle

For live sub-satellite position, see the globe view (requires WebGL).

§ Visibility from observer

Set your observer location to see the next 7 days of passes ≥ 10°. The values pass through the URL so the page stays shareable.

No JS? Fill the form by hand. The geolocation button needs JavaScript.